HBLMA EDFM-EDDH

Flight info

Callsign HBLMA
Flight time N/A
Altitude 7000
Route DARMSTADT HAMBURG
Aircraft DA42/L-SBDGRY/S

Departure

Time 2026-04-21 07:53
Airport Mannheim-City Airport (EDFM)

Arrival

Time N/A
Airport Hamburg Helmut Schmidt Airport (EDDH)
Time Latitude Longitude Altitude Speed Heading
2026-04-21 07:50 49.47559 8.52112 312 ft 0 kts 182°
2026-04-21 07:52 49.47539 8.52147 313 ft 20 kts 105°
2026-04-21 07:52 49.47406 8.52175 313 ft 34 kts 184°
2026-04-21 07:52 49.47250 8.52146 309 ft 5 kts 252°
2026-04-21 07:52 49.47255 8.51917 310 ft 54 kts 274°
2026-04-21 07:53 49.47278 8.51085 367 ft 97 kts 275°
2026-04-21 07:53 49.47307 8.49903 674 ft 109 kts 282°
2026-04-21 07:53 49.47619 8.48923 1237 ft 100 kts 301°
2026-04-21 07:53 49.48059 8.48198 1706 ft 92 kts
2026-04-21 07:54 49.48529 8.48659 2176 ft 83 kts 46°
2026-04-21 07:54 49.48999 8.49229 2515 ft 100 kts 45°
2026-04-21 07:54 49.49635 8.50064 2519 ft 137 kts 41°
2026-04-21 07:54 49.50460 8.51028 2515 ft 158 kts 40°
2026-04-21 07:55 49.51241 8.52258 2513 ft 165 kts 50°
2026-04-21 07:55 49.52207 8.53270 2515 ft 172 kts 31°
2026-04-21 07:55 49.53360 8.53823 2505 ft 178 kts
2026-04-21 07:55 49.54597 8.54036 2505 ft 178 kts 13°
2026-04-21 07:56 49.55817 8.54377 2508 ft 179 kts 14°
2026-04-21 07:56 49.57041 8.54731 2514 ft 179 kts 15°
2026-04-21 07:56 49.58215 8.55122 2780 ft 167 kts 16°
2026-04-21 07:56 49.59337 8.55493 3024 ft 162 kts 17°
2026-04-21 07:57 49.60434 8.55847 3281 ft 160 kts 17°
2026-04-21 07:57 49.61527 8.56194 3485 ft 163 kts 17°
2026-04-21 07:57 49.62668 8.56563 3493 ft 171 kts 17°
2026-04-21 07:57 49.63848 8.56946 3496 ft 175 kts 17°
2026-04-21 07:58 49.65054 8.57338 3501 ft 177 kts 16°
2026-04-21 07:58 49.66263 8.57735 3495 ft 179 kts 16°
2026-04-21 07:58 49.67501 8.57897 3502 ft 183 kts
2026-04-21 07:58 49.68780 8.57609 3491 ft 181 kts 11°
2026-04-21 07:59 49.69857 8.58400 3498 ft 175 kts 36°
2026-04-21 07:59 49.71066 8.58734 3493 ft 186 kts 356°
2026-04-21 07:59 49.72344 8.58323 3421 ft 191 kts 352°
2026-04-21 07:59 49.73623 8.57872 3157 ft 186 kts 351°
2026-04-21 08:00 49.74866 8.57451 2893 ft 180 kts 354°
2026-04-21 08:00 49.76086 8.57180 2626 ft 173 kts
2026-04-21 08:00 49.77262 8.57352 2396 ft 167 kts 11°
2026-04-21 08:00 49.78373 8.57553 2389 ft 155 kts 11°
2026-04-21 08:01 49.79421 8.57739 2382 ft 149 kts 11°
2026-04-21 08:01 49.80433 8.57916 2389 ft 145 kts 12°
2026-04-21 08:01 49.81364 8.58331 2399 ft 136 kts 36°
2026-04-21 08:02 49.83145 8.59400 2391 ft 139 kts 19°
2026-04-21 08:02 49.84094 8.59710 2393 ft 140 kts 13°
2026-04-21 08:02 49.85051 8.59929 2394 ft 141 kts 13°
2026-04-21 08:02 49.86098 8.60165 2410 ft 159 kts 13°
2026-04-21 08:03 49.87232 8.60397 2414 ft 168 kts 13°
2026-04-21 08:03 49.88337 8.60906 2412 ft 169 kts 26°
2026-04-21 08:03 49.89464 8.61509 2412 ft 174 kts 21°
2026-04-21 08:03 49.90667 8.61760 2410 ft 181 kts 353°
2026-04-21 08:04 49.91796 8.60826 2409 ft 187 kts 328°
2026-04-21 08:04 49.92888 8.59752 2411 ft 183 kts 345°
2026-04-21 08:04 49.94082 8.59088 2414 ft 184 kts 341°
2026-04-21 08:04 49.95278 8.58259 2273 ft 191 kts 341°
2026-04-21 08:05 49.96455 8.57408 2205 ft 178 kts 338°
2026-04-21 08:05 49.97520 8.56521 2073 ft 172 kts 334°
2026-04-21 08:05 49.98543 8.55525 1779 ft 175 kts 332°
2026-04-21 08:05 49.99590 8.54584 1608 ft 169 kts 338°
2026-04-21 08:06 50.00543 8.53824 1374 ft 134 kts 341°
2026-04-21 08:06 50.01357 8.53451 1005 ft 113 kts 354°
2026-04-21 08:06 50.02111 8.53346 702 ft 123 kts 11°
2026-04-21 08:06 50.02893 8.54072 400 ft 141 kts 60°
2026-04-21 08:07 50.03220 8.55363 390 ft 133 kts 67°
2026-04-21 08:07 50.03534 8.56761 605 ft 138 kts 66°
2026-04-21 08:07 50.03915 8.58209 573 ft 155 kts 59°
2026-04-21 08:07 50.04506 8.59690 479 ft 158 kts 40°
2026-04-21 08:08 50.05384 8.60366 1057 ft 131 kts 25°
2026-04-21 08:08 50.06229 8.60688 1609 ft 115 kts 22°
2026-04-21 08:08 50.06928 8.61070 2200 ft 99 kts 22°
2026-04-21 08:08 50.07649 8.61325 2402 ft 122 kts 17°
2026-04-21 08:09 50.08588 8.61488 2421 ft 150 kts 360°
2026-04-21 08:09 50.09666 8.61149 2416 ft 164 kts 352°
2026-04-21 08:09 50.10745 8.60377 2411 ft 174 kts 340°
2026-04-21 08:09 50.11870 8.59647 2418 ft 178 kts 340°
2026-04-21 08:10 50.13002 8.59119 2548 ft 161 kts 15°
2026-04-21 08:10 50.14114 8.59567 2389 ft 173 kts 18°
2026-04-21 08:10 50.15307 8.59896 2417 ft 173 kts
2026-04-21 08:10 50.16459 8.59826 2657 ft 159 kts 11°
2026-04-21 08:11 50.17533 8.60053 2889 ft 154 kts 14°
2026-04-21 08:11 50.18580 8.60318 3117 ft 151 kts 14°
2026-04-21 08:11 50.19662 8.60595 2967 ft 171 kts 14°
2026-04-21 08:11 50.20861 8.60914 2695 ft 184 kts 14°
2026-04-21 08:12 50.22163 8.61283 2417 ft 188 kts 15°
2026-04-21 08:12 50.23403 8.61704 2418 ft 178 kts 16°
2026-04-21 08:12 50.24579 8.62173 2411 ft 172 kts 21°
2026-04-21 08:12 50.25713 8.62773 2415 ft 171 kts 22°
2026-04-21 08:13 50.26835 8.63381 2417 ft 171 kts 23°
2026-04-21 08:13 50.27962 8.63982 2415 ft 170 kts 22°
2026-04-21 08:13 50.29063 8.64564 2493 ft 164 kts 22°
2026-04-21 08:13 50.30162 8.65102 2502 ft 167 kts 22°
2026-04-21 08:14 50.31258 8.65636 2510 ft 167 kts 21°
2026-04-21 08:14 50.32368 8.66181 2510 ft 167 kts 22°
2026-04-21 08:14 50.33480 8.66727 2510 ft 168 kts 20°
2026-04-21 08:14 50.34589 8.67318 2510 ft 168 kts 24°
2026-04-21 08:15 50.35690 8.67934 2511 ft 168 kts 24°
2026-04-21 08:15 50.36796 8.68541 2510 ft 169 kts 23°
2026-04-21 08:15 50.37896 8.69171 2510 ft 168 kts 23°
2026-04-21 08:15 50.38997 8.69795 2554 ft 166 kts 24°
2026-04-21 08:16 50.40063 8.70387 2757 ft 159 kts 24°
2026-04-21 08:16 50.41094 8.70963 2960 ft 155 kts 24°
2026-04-21 08:16 50.42102 8.71517 3161 ft 153 kts 23°
2026-04-21 08:16 50.43110 8.72063 3374 ft 153 kts 24°
2026-04-21 08:17 50.44113 8.72609 3583 ft 153 kts 23°
2026-04-21 08:17 50.45106 8.73155 3783 ft 153 kts 23°
2026-04-21 08:17 50.46120 8.73710 3989 ft 152 kts 24°
2026-04-21 08:17 50.47124 8.74252 4200 ft 153 kts 23°
2026-04-21 08:18 50.48118 8.74785 4404 ft 153 kts 24°
2026-04-21 08:18 50.49134 8.75324 4617 ft 154 kts 24°
2026-04-21 08:18 50.50157 8.75860 4832 ft 155 kts 23°
2026-04-21 08:18 50.51176 8.76391 5039 ft 154 kts 24°
2026-04-21 08:19 50.52196 8.76915 5244 ft 154 kts 24°
2026-04-21 08:19 50.53219 8.77441 5450 ft 155 kts 24°
2026-04-21 08:19 50.54262 8.77982 5520 ft 163 kts 24°
2026-04-21 08:19 50.55364 8.78560 5524 ft 169 kts 24°
2026-04-21 08:20 50.56490 8.79157 5520 ft 172 kts 23°
2026-04-21 08:20 50.57631 8.79770 5533 ft 174 kts 24°
2026-04-21 08:20 50.58781 8.80389 5526 ft 175 kts 24°
2026-04-21 08:20 50.59939 8.81013 5528 ft 176 kts 24°
2026-04-21 08:21 50.61100 8.81631 5526 ft 175 kts 23°
2026-04-21 08:21 50.62253 8.82247 5526 ft 175 kts 24°
2026-04-21 08:21 50.63405 8.82867 5529 ft 176 kts 24°
2026-04-21 08:21 50.64557 8.83479 5524 ft 173 kts 23°
2026-04-21 08:22 50.65684 8.84075 5526 ft 173 kts 24°
2026-04-21 08:22 50.66828 8.84688 5529 ft 174 kts 23°
2026-04-21 08:22 50.67973 8.85308 5530 ft 174 kts 24°
2026-04-21 08:22 50.69122 8.85931 5525 ft 174 kts 24°
2026-04-21 08:23 50.70267 8.86549 5518 ft 174 kts 24°
2026-04-21 08:23 50.71419 8.87163 5527 ft 174 kts 24°
2026-04-21 08:23 50.72566 8.87778 5520 ft 174 kts 23°
2026-04-21 08:23 50.73716 8.88407 5526 ft 175 kts 24°
2026-04-21 08:24 50.74861 8.89030 5527 ft 173 kts 24°
2026-04-21 08:24 50.76010 8.89649 5531 ft 174 kts 23°
2026-04-21 08:24 50.77144 8.90258 5531 ft 174 kts 24°
2026-04-21 08:24 50.78295 8.90877 5534 ft 175 kts 24°
2026-04-21 08:25 50.79459 8.91437 5532 ft 177 kts 15°
2026-04-21 08:25 50.80665 8.91824 5530 ft 176 kts 21°
2026-04-21 08:25 50.81838 8.92376 5533 ft 176 kts 21°
2026-04-21 08:25 50.83014 8.92933 5530 ft 176 kts 21°
2026-04-21 08:26 50.84184 8.93483 5530 ft 175 kts 21°
2026-04-21 08:26 50.85348 8.94031 5536 ft 175 kts 21°
2026-04-21 08:26 50.86497 8.94638 5538 ft 174 kts 25°
2026-04-21 08:26 50.87630 8.95320 5534 ft 175 kts 25°
2026-04-21 08:27 50.88763 8.96006 5541 ft 174 kts 25°
2026-04-21 08:27 50.89895 8.96697 5538 ft 175 kts 26°
2026-04-21 08:27 50.91029 8.97385 5534 ft 174 kts 25°
2026-04-21 08:27 50.92157 8.98071 5544 ft 174 kts 25°
2026-04-21 08:28 50.93289 8.98763 5542 ft 174 kts 26°
2026-04-21 08:28 50.94424 8.99453 5552 ft 175 kts 25°
2026-04-21 08:28 50.95561 9.00151 5545 ft 175 kts 26°
2026-04-21 08:28 50.96693 9.00844 5548 ft 174 kts 25°
2026-04-21 08:29 50.97823 9.01537 5549 ft 175 kts 26°
2026-04-21 08:29 50.98959 9.02223 5547 ft 175 kts 26°
2026-04-21 08:29 51.00094 9.02907 5555 ft 174 kts 25°
2026-04-21 08:29 51.01231 9.03605 5560 ft 176 kts 26°
2026-04-21 08:30 51.02372 9.04311 5553 ft 176 kts 26°
2026-04-21 08:30 51.03511 9.05015 5556 ft 175 kts 26°
2026-04-21 08:30 51.04647 9.05719 5556 ft 176 kts 26°
2026-04-21 08:30 51.05773 9.06417 5560 ft 176 kts 25°
2026-04-21 08:31 51.06903 9.07126 5539 ft 174 kts 26°
2026-04-21 08:31 51.08075 9.07862 5284 ft 186 kts 25°
2026-04-21 08:31 51.09294 9.08632 5033 ft 190 kts 26°
2026-04-21 08:31 51.10528 9.09414 4769 ft 191 kts 25°
2026-04-21 08:32 51.11796 9.10234 4222 ft 202 kts 25°
2026-04-21 08:32 51.13108 9.11108 3660 ft 205 kts 25°
2026-04-21 08:32 51.14372 9.11964 3086 ft 188 kts 25°
2026-04-21 08:32 51.15524 9.12750 2511 ft 174 kts 25°
2026-04-21 08:33 51.16550 9.13471 2393 ft 145 kts 25°
2026-04-21 08:33 51.17477 9.14069 2393 ft 153 kts 18°
2026-04-21 08:33 51.18554 9.14491 2405 ft 165 kts 15°
2026-04-21 08:33 51.19698 9.14937 2405 ft 172 kts 15°
2026-04-21 08:34 51.20866 9.15363 2407 ft 172 kts 15°
2026-04-21 08:34 51.22033 9.15780 2496 ft 171 kts 15°
2026-04-21 08:34 51.23208 9.16200 2504 ft 176 kts 14°
2026-04-21 08:34 51.24408 9.16629 2503 ft 178 kts 15°
2026-04-21 08:35 51.25611 9.17047 2503 ft 179 kts 15°
2026-04-21 08:35 51.26846 9.17482 2509 ft 180 kts 14°
2026-04-21 08:35 51.27657 9.17770 2500 ft 181 kts 14°
2026-04-21 08:35 51.29297 9.18345 2504 ft 180 kts 15°
2026-04-21 08:36 51.30507 9.18774 2503 ft 180 kts 15°
2026-04-21 08:36 51.31731 9.19198 2503 ft 180 kts 15°
2026-04-21 08:36 51.32955 9.19626 2503 ft 180 kts 15°
2026-04-21 08:36 51.34182 9.20058 2494 ft 180 kts 14°
2026-04-21 08:37 51.35397 9.20487 2502 ft 179 kts 15°
2026-04-21 08:37 51.36206 9.20779 2503 ft 179 kts 15°
2026-04-21 08:37 51.37422 9.21217 2501 ft 179 kts 14°
2026-04-21 08:37 51.38638 9.21648 2500 ft 178 kts 14°
2026-04-21 08:38 51.39846 9.22080 2495 ft 178 kts 15°
2026-04-21 08:38 51.41052 9.22515 2496 ft 178 kts 15°
2026-04-21 08:38 51.42191 9.23202 2498 ft 175 kts 40°
2026-04-21 08:38 51.42755 9.24877 2496 ft 175 kts 83°
2026-04-21 08:39 51.42474 9.26761 2497 ft 176 kts 112°
2026-04-21 08:39 51.42031 9.28599 2501 ft 177 kts 109°
2026-04-21 08:39 51.41522 9.30389 2510 ft 177 kts 114°
2026-04-21 08:39 51.40990 9.32173 2509 ft 178 kts 113°
2026-04-21 08:40 51.40464 9.33965 2505 ft 177 kts 109°
2026-04-21 08:40 51.40445 9.35877 2504 ft 175 kts 70°
2026-04-21 08:40 51.40995 9.37614 2509 ft 175 kts 62°
2026-04-21 08:40 51.41588 9.39296 2508 ft 176 kts 61°
2026-04-21 08:41 51.42243 9.40954 2508 ft 177 kts 53°
2026-04-21 08:41 51.43013 9.42493 2508 ft 177 kts 53°
2026-04-21 08:41 51.43772 9.44050 2505 ft 177 kts 52°
2026-04-21 08:41 51.44570 9.45553 2511 ft 177 kts 50°
2026-04-21 08:42 51.45381 9.47049 2508 ft 177 kts 49°
2026-04-21 08:42 51.46191 9.48533 2508 ft 177 kts 50°
2026-04-21 08:42 51.46999 9.50011 2502 ft 176 kts 49°
2026-04-21 08:42 51.47818 9.51481 2410 ft 178 kts 47°
2026-04-21 08:43 51.48653 9.52959 2365 ft 178 kts 50°
2026-04-21 08:43 51.49453 9.54455 2453 ft 173 kts 50°
2026-04-21 08:43 51.50261 9.55830 2629 ft 168 kts 37°
2026-04-21 08:43 51.51379 9.56328 2816 ft 169 kts
2026-04-21 08:44 51.52556 9.56489 3000 ft 170 kts
2026-04-21 08:44 51.53729 9.56638 3180 ft 169 kts
2026-04-21 08:44 51.54887 9.56773 3366 ft 169 kts
2026-04-21 08:44 51.56056 9.56903 3545 ft 168 kts
2026-04-21 08:45 51.57220 9.57031 3764 ft 167 kts
2026-04-21 08:45 51.58379 9.57155 3993 ft 167 kts
2026-04-21 08:45 51.59538 9.57281 4229 ft 166 kts
2026-04-21 08:45 51.60685 9.57400 4459 ft 165 kts
2026-04-21 08:46 51.61825 9.57514 4699 ft 163 kts
2026-04-21 08:46 51.62958 9.57630 4933 ft 164 kts
2026-04-21 08:46 51.64100 9.57744 5171 ft 164 kts
2026-04-21 08:46 51.65237 9.57859 5401 ft 163 kts
2026-04-21 08:47 51.66386 9.57985 5514 ft 171 kts
2026-04-21 08:47 51.67612 9.58130 5520 ft 180 kts
2026-04-21 08:47 51.68877 9.58279 5529 ft 184 kts
2026-04-21 08:47 51.70161 9.58437 5530 ft 185 kts
2026-04-21 08:48 51.71445 9.58590 5532 ft 185 kts
2026-04-21 08:48 51.72731 9.58745 5534 ft 186 kts
2026-04-21 08:48 51.74030 9.58903 5528 ft 187 kts
2026-04-21 08:48 51.75324 9.59063 5532 ft 187 kts
2026-04-21 08:49 51.76621 9.59223 5545 ft 187 kts
2026-04-21 08:49 51.77930 9.59385 5521 ft 188 kts
2026-04-21 08:49 51.79231 9.59549 5523 ft 187 kts
2026-04-21 08:49 51.80515 9.59709 5537 ft 189 kts
2026-04-21 08:50 51.81833 9.59869 5530 ft 189 kts
2026-04-21 08:50 51.83141 9.59996 5530 ft 188 kts
2026-04-21 08:50 51.84453 9.60125 5538 ft 190 kts
2026-04-21 08:50 51.85782 9.60247 5531 ft 191 kts
2026-04-21 08:51 51.87094 9.60377 5542 ft 189 kts
2026-04-21 08:51 51.88423 9.60500 5539 ft 191 kts
2026-04-21 08:51 51.89742 9.60620 5534 ft 189 kts
2026-04-21 08:51 51.91056 9.60741 5545 ft 189 kts
2026-04-21 08:52 51.92384 9.60872 5547 ft 192 kts
2026-04-21 08:52 51.93725 9.61000 5530 ft 193 kts
2026-04-21 08:52 51.95052 9.61133 5538 ft 190 kts
2026-04-21 08:52 51.96360 9.61263 5540 ft 192 kts
2026-04-21 08:53 51.97707 9.61386 5544 ft 191 kts
2026-04-21 08:53 51.99043 9.61502 5533 ft 190 kts
2026-04-21 08:53 52.00347 9.61632 5550 ft 190 kts
2026-04-21 08:53 52.01675 9.61731 5437 ft 195 kts 353°
2026-04-21 08:54 52.02748 9.60416 5497 ft 201 kts 306°
2026-04-21 08:54 52.03108 9.58234 5538 ft 206 kts 268°
2026-04-21 08:54 52.02587 9.56119 5540 ft 204 kts 227°
2026-04-21 08:54 52.01396 9.54953 5550 ft 202 kts 189°
2026-04-21 08:55 52.00056 9.55207 5538 ft 194 kts 149°
2026-04-21 08:55 51.99168 9.56710 5545 ft 184 kts 110°
2026-04-21 08:55 51.99116 9.58715 5543 ft 181 kts 70°
2026-04-21 08:55 51.99902 9.60256 5528 ft 181 kts 32°
2026-04-21 08:56 52.01146 9.60548 5541 ft 189 kts 352°
2026-04-21 08:56 52.02272 9.59403 5551 ft 201 kts 310°
2026-04-21 08:56 52.02747 9.57263 5542 ft 206 kts 273°
2026-04-21 08:56 52.02348 9.55065 5545 ft 206 kts 233°
2026-04-21 08:57 51.99957 9.53719 5550 ft 198 kts 159°
2026-04-21 08:57 51.98905 9.54983 5551 ft 187 kts 120°
2026-04-21 08:57 51.98631 9.56954 5560 ft 181 kts 81°
2026-04-21 08:58 51.99232 9.58712 5547 ft 183 kts 40°
2026-04-21 08:58 52.00425 9.59373 5557 ft 187 kts
2026-04-21 08:58 52.01635 9.58604 5545 ft 194 kts 322°
2026-04-21 08:58 52.02292 9.56687 5537 ft 203 kts 282°
2026-04-21 08:59 52.02083 9.54436 5558 ft 206 kts 243°
2026-04-21 08:59 52.01087 9.52845 5558 ft 204 kts 203°
2026-04-21 08:59 51.99732 9.52567 5552 ft 196 kts 165°
2026-04-21 08:59 51.98628 9.53670 5545 ft 188 kts 124°
2026-04-21 09:00 51.98244 9.55601 5544 ft 180 kts 85°
2026-04-21 09:00 51.98760 9.57392 5568 ft 180 kts 45°
2026-04-21 09:00 51.99915 9.58214 5545 ft 187 kts
2026-04-21 09:00 52.01214 9.58359 5547 ft 187 kts
2026-04-21 09:01 52.02507 9.58480 5551 ft 185 kts
2026-04-21 09:01 52.03795 9.58598 5555 ft 186 kts
2026-04-21 09:01 52.05072 9.58718 5554 ft 186 kts
2026-04-21 09:01 52.06386 9.58835 5539 ft 189 kts
2026-04-21 09:02 52.07689 9.58953 5555 ft 187 kts
2026-04-21 09:02 52.08995 9.59065 5549 ft 189 kts
2026-04-21 09:02 52.10314 9.59189 5541 ft 189 kts
2026-04-21 09:03 52.12926 9.59425 5550 ft 186 kts
2026-04-21 09:03 52.14218 9.59542 5552 ft 186 kts
2026-04-21 09:03 52.15514 9.59655 5560 ft 187 kts
2026-04-21 09:03 52.16818 9.59769 5559 ft 189 kts
2026-04-21 09:04 52.18129 9.59884 5558 ft 188 kts
2026-04-21 09:04 52.19427 9.60001 5554 ft 187 kts
2026-04-21 09:04 52.20721 9.60108 5564 ft 186 kts
2026-04-21 09:04 52.22024 9.60215 5578 ft 190 kts
2026-04-21 09:05 52.23346 9.60323 5566 ft 189 kts
2026-04-21 09:05 52.24655 9.60432 5567 ft 188 kts
2026-04-21 09:05 52.25957 9.60543 5578 ft 187 kts
2026-04-21 09:05 52.27272 9.60654 5575 ft 190 kts
2026-04-21 09:06 52.28591 9.60760 5580 ft 189 kts
2026-04-21 09:06 52.29898 9.60872 5588 ft 189 kts
2026-04-21 09:06 52.31197 9.60976 5568 ft 188 kts
2026-04-21 09:06 52.32506 9.61090 5569 ft 187 kts
2026-04-21 09:07 52.33807 9.61187 5574 ft 186 kts
2026-04-21 09:07 52.35103 9.61289 5583 ft 188 kts
2026-04-21 09:07 52.36413 9.61385 5584 ft 188 kts
2026-04-21 09:07 52.37719 9.61488 5577 ft 187 kts
2026-04-21 09:08 52.39021 9.61585 5577 ft 187 kts
2026-04-21 09:08 52.40316 9.61685 5573 ft 187 kts
2026-04-21 09:08 52.41606 9.61771 5577 ft 185 kts
2026-04-21 09:08 52.42888 9.61857 5577 ft 187 kts
2026-04-21 09:09 52.44196 9.61947 5587 ft 189 kts
2026-04-21 09:09 52.45527 9.62041 5575 ft 188 kts
2026-04-21 09:09 52.46835 9.62128 5575 ft 190 kts
2026-04-21 09:09 52.48154 9.62215 5575 ft 188 kts
2026-04-21 09:10 52.49441 9.62290 5574 ft 186 kts
2026-04-21 09:10 52.50730 9.62371 5576 ft 185 kts
2026-04-21 09:10 52.52012 9.62449 5578 ft 184 kts
2026-04-21 09:10 52.52831 9.62500 5590 ft 186 kts
2026-04-21 09:11 52.53485 9.62534 5578 ft 187 kts
2026-04-21 09:11 52.54786 9.62601 5588 ft 188 kts
2026-04-21 09:12 52.56089 9.62689 5591 ft 187 kts
2026-04-21 09:12 52.57398 9.62775 5588 ft 189 kts
2026-04-21 09:12 52.58709 9.62849 5585 ft 189 kts
2026-04-21 09:12 52.60020 9.62937 5571 ft 188 kts
2026-04-21 09:13 52.61323 9.63012 5577 ft 187 kts
2026-04-21 09:13 52.62624 9.63092 5581 ft 186 kts
2026-04-21 09:13 52.63922 9.63165 5585 ft 187 kts
2026-04-21 09:13 52.65227 9.63241 5568 ft 186 kts
2026-04-21 09:14 52.66523 9.63309 5568 ft 187 kts
2026-04-21 09:14 52.66629 9.63315 5576 ft 187 kts
2026-04-21 09:15 52.67596 9.63365 5576 ft 189 kts
2026-04-21 09:15 52.68897 9.63545 5565 ft 184 kts 20°
2026-04-21 09:15 52.70138 9.63904 5571 ft 188 kts 356°
2026-04-21 09:15 52.71335 9.62914 5572 ft 197 kts 329°
2026-04-21 09:16 52.72433 9.61539 5582 ft 198 kts 327°
2026-04-21 09:16 52.73526 9.60132 5569 ft 199 kts 327°
2026-04-21 09:16 52.74618 9.58717 5582 ft 199 kts 327°
2026-04-21 09:16 52.75711 9.57296 5567 ft 201 kts 327°
2026-04-21 09:17 52.76800 9.55874 5565 ft 199 kts 327°
2026-04-21 09:17 52.77883 9.54459 5556 ft 198 kts 327°
2026-04-21 09:17 52.78943 9.53066 5559 ft 197 kts 327°
2026-04-21 09:17 52.80085 9.51778 5556 ft 197 kts 334°
2026-04-21 09:18 52.81244 9.50631 5574 ft 196 kts 334°
2026-04-21 09:18 52.82423 9.49485 5562 ft 197 kts 335°
2026-04-21 09:18 52.83594 9.48332 5570 ft 196 kts 334°
2026-04-21 09:18 52.84769 9.47190 5562 ft 195 kts 335°
2026-04-21 09:19 52.85933 9.46049 5574 ft 195 kts 335°
2026-04-21 09:19 52.87108 9.44901 5578 ft 197 kts 335°
2026-04-21 09:19 52.88287 9.43751 5572 ft 196 kts 334°
2026-04-21 09:19 52.89460 9.42608 5565 ft 196 kts 335°
2026-04-21 09:20 52.90631 9.41469 5567 ft 195 kts 335°
2026-04-21 09:20 52.91647 9.40670 5563 ft 187 kts 354°
2026-04-21 09:20 52.92440 9.40691 5566 ft 180 kts 18°
2026-04-21 09:20 52.93624 9.41339 5574 ft 181 kts 24°
2026-04-21 09:21 52.94800 9.42070 5576 ft 180 kts 25°
2026-04-21 09:21 52.95979 9.42816 5576 ft 182 kts 25°
2026-04-21 09:21 52.97168 9.43567 5580 ft 184 kts 25°
2026-04-21 09:21 52.98356 9.44320 5588 ft 183 kts 25°
2026-04-21 09:22 52.99546 9.45064 5572 ft 181 kts 25°
2026-04-21 09:22 53.00718 9.45819 5573 ft 180 kts 25°
2026-04-21 09:22 53.01897 9.46567 5570 ft 181 kts 25°
2026-04-21 09:22 53.03055 9.47303 5573 ft 180 kts 25°
2026-04-21 09:23 53.04228 9.48050 5571 ft 180 kts 25°
2026-04-21 09:23 53.05398 9.48792 5585 ft 179 kts 25°
2026-04-21 09:23 53.06569 9.49536 5584 ft 182 kts 24°
2026-04-21 09:23 53.07756 9.50299 5583 ft 184 kts 24°
2026-04-21 09:24 53.08941 9.51065 5583 ft 182 kts 25°
2026-04-21 09:24 53.10128 9.51826 5578 ft 183 kts 25°
2026-04-21 09:24 53.11311 9.52592 5575 ft 182 kts 25°
2026-04-21 09:24 53.12498 9.53345 5576 ft 181 kts 25°
2026-04-21 09:25 53.13673 9.54097 5574 ft 181 kts 25°
2026-04-21 09:25 53.14847 9.54842 5577 ft 181 kts 25°
2026-04-21 09:25 53.16006 9.55579 5580 ft 180 kts 25°
2026-04-21 09:25 53.17191 9.56337 5580 ft 181 kts 25°
2026-04-21 09:26 53.18368 9.57084 5578 ft 180 kts 25°
2026-04-21 09:26 53.19142 9.57383 5588 ft 184 kts
2026-04-21 09:26 53.20319 9.57378 5577 ft 187 kts
2026-04-21 09:26 53.21613 9.57362 5577 ft 185 kts
2026-04-21 09:27 53.22901 9.57321 5580 ft 185 kts
2026-04-21 09:27 53.24191 9.57278 5585 ft 186 kts
2026-04-21 09:27 53.25473 9.57232 5586 ft 186 kts
2026-04-21 09:27 53.26761 9.57187 5586 ft 185 kts
2026-04-21 09:28 53.28046 9.57140 5586 ft 184 kts
2026-04-21 09:28 53.29332 9.57095 5589 ft 185 kts
2026-04-21 09:28 53.30622 9.57057 5588 ft 186 kts
2026-04-21 09:28 53.31924 9.57021 5591 ft 189 kts
2026-04-21 09:29 53.33228 9.56979 5591 ft 186 kts
2026-04-21 09:29 53.34528 9.56930 5587 ft 189 kts
2026-04-21 09:29 53.35830 9.56879 5594 ft 186 kts
2026-04-21 09:29 53.37123 9.56843 5596 ft 185 kts
2026-04-21 09:30 53.38413 9.56795 5593 ft 185 kts
2026-04-21 09:30 53.39704 9.56740 5596 ft 187 kts
2026-04-21 09:30 53.41003 9.56708 5595 ft 187 kts
2026-04-21 09:30 53.42299 9.56658 5595 ft 185 kts
2026-04-21 09:31 53.43588 9.56613 5598 ft 185 kts
2026-04-21 09:31 53.44884 9.56566 5600 ft 186 kts
2026-04-21 09:31 53.45742 9.56528 5599 ft 185 kts
2026-04-21 09:31 53.47459 9.56470 5598 ft 185 kts
2026-04-21 09:32 53.48752 9.56425 5598 ft 186 kts
2026-04-21 09:32 53.50044 9.56365 5599 ft 185 kts
2026-04-21 09:32 53.50905 9.56343 5615 ft 188 kts
2026-04-21 09:32 53.52212 9.56291 5599 ft 187 kts
2026-04-21 09:33 53.53515 9.56255 5603 ft 187 kts
2026-04-21 09:33 53.54818 9.56195 5612 ft 187 kts
2026-04-21 09:33 53.56122 9.56146 5600 ft 187 kts
2026-04-21 09:33 53.57419 9.56117 5604 ft 185 kts
2026-04-21 09:34 53.58706 9.56075 5599 ft 185 kts
2026-04-21 09:34 53.59993 9.56033 5608 ft 185 kts
2026-04-21 09:34 53.61289 9.55984 5599 ft 186 kts
2026-04-21 09:34 53.62580 9.55935 5601 ft 185 kts
2026-04-21 09:35 53.63856 9.55887 5602 ft 185 kts
2026-04-21 09:35 53.65146 9.55841 5602 ft 186 kts
2026-04-21 09:35 53.66442 9.55795 5603 ft 187 kts
2026-04-21 09:35 53.67737 9.55744 5608 ft 186 kts
2026-04-21 09:36 53.69043 9.55686 5610 ft 189 kts
2026-04-21 09:36 53.70363 9.55646 5599 ft 189 kts
2026-04-21 09:36 53.71621 9.55962 5598 ft 179 kts 31°
2026-04-21 09:36 53.72395 9.57500 5612 ft 175 kts 71°
2026-04-21 09:37 53.72620 9.59527 5608 ft 175 kts 81°
2026-04-21 09:37 53.72776 9.61578 5617 ft 177 kts 82°
2026-04-21 09:37 53.72920 9.63639 5618 ft 178 kts 82°
2026-04-21 09:37 53.73071 9.65714 5610 ft 176 kts 82°
2026-04-21 09:38 53.76801 9.81387 5612 ft 8705 kts 57°
2026-04-21 09:38 53.77850 10.06696 5618 ft 174 kts 90°
2026-04-21 09:38 53.77936 10.08749 5614 ft 175 kts 82°
2026-04-21 09:38 53.78066 10.10803 5606 ft 177 kts 82°
2026-04-21 09:39 53.78201 10.12856 5528 ft 179 kts 82°
2026-04-21 09:39 53.78343 10.14977 5421 ft 183 kts 82°
2026-04-21 09:39 53.78479 10.17120 5324 ft 184 kts 82°
2026-04-21 09:39 53.78618 10.19258 5203 ft 183 kts 82°
2026-04-21 09:40 53.78760 10.21428 5009 ft 188 kts 82°
2026-04-21 09:40 53.78905 10.23631 4791 ft 188 kts 83°
2026-04-21 09:40 53.79047 10.25826 4562 ft 187 kts 82°
2026-04-21 09:40 53.79195 10.28013 4311 ft 189 kts 83°
2026-04-21 09:41 53.79355 10.30243 4034 ft 190 kts 77°
2026-04-21 09:41 53.82473 10.42323 3844 ft 6203 kts 66°
2026-04-21 09:41 53.86991 10.59480 3673 ft 188 kts 68°
2026-04-21 09:41 53.87474 10.61513 3377 ft 169 kts 68°
2026-04-21 09:42 53.87836 10.63045 3099 ft 121 kts 68°
2026-04-21 09:42 53.88127 10.64241 2794 ft 102 kts 67°
2026-04-21 09:42 53.88381 10.65327 2446 ft 96 kts 72°
2026-04-21 09:42 53.88017 10.66000 2281 ft 126 kts 187°
2026-04-21 09:43 53.87310 10.64687 2140 ft 162 kts 236°
2026-04-21 09:43 53.86691 10.63268 1893 ft 138 kts 233°
2026-04-21 09:43 53.86181 10.61863 1910 ft 149 kts 240°
2026-04-21 09:43 53.85662 10.60234 1913 ft 163 kts 243°
2026-04-21 09:44 53.85154 10.58570 1911 ft 155 kts 243°
2026-04-21 09:44 53.84693 10.56933 1894 ft 150 kts 244°
2026-04-21 09:44 53.84058 10.55625 1876 ft 142 kts 202°
2026-04-21 09:44 53.83181 10.54997 1894 ft 137 kts 198°
2026-04-21 09:45 53.82287 10.54817 1891 ft 126 kts 157°
2026-04-21 09:45 53.81487 10.55347 1926 ft 126 kts 139°
2026-04-21 09:45 53.80753 10.56141 1871 ft 117 kts 139°
2026-04-21 09:45 53.80031 10.56919 1914 ft 140 kts 139°
2026-04-21 09:46 53.79126 10.57941 1908 ft 167 kts 139°
2026-04-21 09:46 53.78169 10.59151 1612 ft 181 kts 118°
2026-04-21 09:46 53.78426 10.61016 1182 ft 177 kts 69°
2026-04-21 09:46 53.78768 10.62858 1036 ft 156 kts 69°
2026-04-21 09:47 53.79085 10.64401 833 ft 124 kts 70°
2026-04-21 09:47 53.79337 10.65721 677 ft 112 kts 67°
2026-04-21 09:47 53.79576 10.66961 535 ft 123 kts 67°
2026-04-21 09:47 53.79886 10.68538 334 ft 155 kts 70°
2026-04-21 09:48 53.80161 10.70031 121 ft 98 kts 65°
2026-04-21 09:48 53.80339 10.70561 55 ft 22 kts 329°
2026-04-21 09:48 53.80426 10.70470 56 ft 0 kts 324°
2026-04-21 09:48 53.80459 10.70431 56 ft 16 kts 327°
2026-04-21 09:49 53.80542 10.70338 56 ft 13 kts 333°
2026-04-21 09:49 53.80599 10.70406 56 ft 10 kts 74°
2026-04-21 09:49 53.80560 10.70441 56 ft 6 kts 150°
2026-04-21 09:49 53.80559 10.70449 56 ft 0 kts 52°